{"data":{"norad_id":57882,"epoch":"2026-09-20T11:34:13.217088Z","epoch_age_seconds":135927,"freshness":"FRESH","line1":"1 57882U 23144U   26263.48209742  .00001511  00000+0  64419-4 0  9994","line2":"2 57882  43.0023 265.5233 0001174 269.1178  90.9539 15.27580847167429","mean_motion":15.27580847,"eccentricity":0.0001174,"inclination_deg":43.0023,"raan_deg":265.5233,"arg_perigee_deg":269.1178,"mean_anomaly_deg":90.9539,"bstar":6.4419e-5,"rev_number":16742,"period_min":94.266696445429,"perigee_km":482.2410568682,"apogee_km":483.85206276804,"semimajor_km":6861.1835598181,"source":"CELESTRAK","updated_at":"2026-09-21T09:00:33.719375Z"}}